Temperature
20 20 20 20 20 20 20 20 20 20 20 20 20 20 20 20 20 20 19 19 19 19 19 19 19 19 19 19 19 19 19 19 19 18 18 18 18 18 18 18 18 18 18
20 20 20 20 20 20 20 20 20 20 20 20 20 20 20 20 20 20 19 19 19 19 19 19 19 19 19 19 19 19 19 19 19 18 18 18 18 18 18 18 18 18 18
21 20 20 20 20 20 20 20 20 20 20 20 20 20 20 20 20 19 19 19 19 19 19 19 19 19 19 19 19 19 19 18 18 18 18 18 18 18 18 18 18 18 18
21 21 20 20 20 20 20 20 20 20 20 20 20 20 20 20 19 19 19 19 19 19 19 19 19 19 19 19 19 19 18 18 18 18 18 18 18 18 18 18 18 18 18
21 21 21 20 20 20 20 20 20 20 20 20 20 20 20 20 19 19 19 19 19 19 19 19 19 19 19 19 19 18 18 18 18 18 18 18 18 18 18 18 18 18 18
21 21 21 21 20 20 20 20 20 20 20 20 20 20 20 19 19 19 19 19 19 19 19 19 19 19 19 19 19 18 18 18 18 18 18 18 18 18 18 18 18 18 18
21 21 21 21 21 20 20 20 20 20 20 20 20 20 19 19 19 19 19 19 19 19 19 19 19 19 19 19 19 19 18 18 18 18 18 18 18 18 18 18 18 18 18
21 21 21 21 21 20 20 20 20 20 20 20 20 20 20 19 19 19 19 19 19 19 19 19 19 19 19 19 19 18 18 18 18 18 18 18 18 18 18 18 18 18 18
21 21 21 21 20 20 20 20 20 20 20 20 20 19 19 19 19 19 19 19 19 19 19 19 19 19 19 19 19 19 19 18 18 19 18 18 18 18 18 18 18 18 18
21 21 21 21 21 20 20 20 20 20 20 20 19 19 19 19 19 19 19 19 19 19 19 19 19 19 19 19 19 19 19 19 19 19 19 19 18 18 18 18 18 18 18
21 21 21 21 21 20 20 20 20 20 20 19 19 19 19 19 19 19 19 19 19 19 19 19 19 19 19 19 19 19 19 19 19 19 19 19 18 18 18 18 18 18 18
21 21 21 21 20 20 20 20 20 20 20 19 19 19 19 19 19 19 19 19 19 19 19 19 19 19 19 19 19 19 19 19 19 19 19 19 18 18 18 18 18 18 18
21 21 21 21 21 20 20 20 20 20 20 20 20 19 19 19 19 19 19 19 19 19 19 19 19 19 19 19 19 19 19 19 19 19 19 19 19 18 18 18 18 18 18
21 21 21 21 21 20 20 20 20 20 20 20 20 19 19 19 19 19 19 19 19 19 19 19 19 19 19 19 19 19 19 19 19 19 19 19 19 18 18 18 18 18 18
21 21 21 21 21 21 20 20 20 20 20 20 20 19 19 19 19 19 19 19 19 19 19 19 19 19 19 19 19 19 19 19 19 19 19 19 19 18 19 18 18 18 18
22 21 21 21 21 21 21 20 20 20 20 20 20 19 19 19 19 19 19 19 19 19 19 19 19 19 19 19 19 19 19 19 19 19 19 19 19 19 18 18 18 18 18
22 22 21 21 21 21 20 20 20 20 20 20 20 19 19 19 19 19 19 19 19 19 19 19 19 19 19 19 19 19 19 19 19 19 19 18 18 18 18 18 18 18 18
22 22 21 21 21 21 21 20 20 20 20 20 19 19 19 19 19 19 19 19 19 19 19 19 19 19 19 19 19 19 19 19 19 19 19 18 18 18 18 18 18 18 18
23 22 22 21 21 21 21 20 20 20 20 20 19 19 19 19 19 19 19 19 19 19 19 19 19 19 19 18 18 18 19 18 18 18 18 18 18 18 18 18 18 18 18
23 22 22 21 21 21 21 20 20 20 20 19 19 19 19 19 19 19 19 19 19 19 18 18 19 18 18 19 18 18 19 18 18 18 18 18 18 18 18 18 18 18 18
23 22 22 22 21 21 21 20 20 20 20 19 19 19 19 19 19 19 19 19 19 19 19 19 18 18 18 18 18 18 18 18 18 18 18 18 18 18 18 18 18 18 18
23 22 22 21 21 21 21 21 20 20 19 19 19 19 19 19 19 19 19 19 19 19 19 18 18 18 18 18 18 18 18 18 18 18 18 18 18 18 18 18 18 18 18
23 22 22 22 21 21 21 20 20 20 20 19 19 19 19 19 19 19 19 19 18 18 18 18 18 18 18 18 18 18 18 18 18 18 18 18 18 18 18 18 18 18 18
22 22 22 22 21 21 21 20 20 20 20 19 19 19 19 19 19 19 19 19 18 18 18 18 18 18 18 18 18 18 18 18 17 17 18 18 18 18 18 18 18 17 17
22 22 22 22 21 21 21 20 20 20 20 19 19 19 19 19 19 19 19 19 18 18 18 18 18 18 18 18 18 18 17 17 17 17 17 18 18 18 17 17 17 17 17
22 22 22 21 21 21 20 20 20 20 19 19 19 19 19 19 19 19 19 19 18 18 18 18 18 18 18 18 17 17 17 17 17 17 17 17 17 17 17 17 17 17 17
Wind_Speed
4 6 11 11 11 11 12 12 12 12 13 13 13 14 14 15 15 16 15 14 14 14 14 14 13 12 12 11 12 13 13 13 13 13 13 12 12 11 11 12 12 11 12
8 9 12 11 12 12 12 12 11 12 12 12 13 13 14 14 14 14 14 13 13 13 13 13 12 12 11 11 11 12 12 12 12 12 12 11 11 11 10 11 11 10 12
10 10 12 12 12 12 12 12 12 12 11 12 13 13 14 14 14 13 13 13 13 12 12 11 11 11 10 11 10 10 10 10 10 10 9 8 9 10 10 10 12 12 12
10 10 11 13 12 12 12 11 12 12 11 12 12 13 13 13 13 12 12 12 12 11 11 11 10 10 10 9 9 9 9 9 8 8 6 6 7 9 9 10 11 12 11
9 10 13 14 13 12 11 11 11 11 11 11 12 12 12 12 11 11 11 11 11 11 10 10 10 9 9 8 8 7 7 7 7 6 5 5 6 9 9 10 11 11 11
9 11 13 15 13 12 12 11 11 11 11 11 11 11 11 10 10 10 10 10 10 10 9 9 9 8 8 7 7 6 6 6 5 5 5 6 7 9 11 11 11 11 10
10 10 13 14 13 13 12 11 11 11 10 10 10 10 10 9 9 9 9 9 9 9 9 8 8 7 7 7 6 6 6 5 4 5 6 6 8 11 12 12 12 11 11
11 9 11 13 13 12 12 11 11 11 10 10 9 9 9 9 9 8 8 9 8 8 8 8 7 7 7 6 6 6 6 5 5 5 5 6 9 11 13 13 13 12 11
9 8 7 9 10 12 12 11 11 10 9 9 8 8 8 8 8 8 8 8 8 8 7 7 7 6 7 7 7 7 7 7 6 5 6 7 10 13 13 13 13 13 12
7 6 5 6 7 8 9 10 10 9 9 8 7 7 7 7 7 6 6 7 8 8 7 7 7 7 7 7 7 8 8 7 6 6 6 8 11 13 13 13 13 13 12
7 5 5 5 5 6 7 8 9 9 8 7 6 7 6 5 5 5 5 6 6 7 7 7 7 6 6 6 8 8 7 6 6 6 7 10 11 12 13 13 13 12 12
8 6 5 5 5 6 6 6 6 6 6 6 5 5 4 4 4 4 4 5 5 6 7 7 7 6 5 4 6 7 5 6 6 6 8 12 13 13 13 13 13 13 12
9 8 7 6 6 5 3 5 5 5 5 4 5 5 4 3 3 2 1 2 4 4 4 4 5 4 4 3 3 4 5 5 5 7 9 13 14 14 14 14 14 13 13
8 8 7 7 6 5 4 4 4 4 3 3 4 5 4 2 2 2 1 2 2 3 2 2 3 4 3 4 4 3 4 5 6 7 9 13 13 14 15 15 15 14 13
8 8 7 7 6 5 4 3 4 4 4 5 5 5 5 3 2 2 2 2 2 2 2 2 2 2 2 2 3 3 4 5 6 7 8 13 14 14 15 15 15 14 14
9 8 7 7 7 6 4 3 3 4 4 4 4 5 6 4 3 2 1 1 1 1 2 1 1 1 1 0 1 1 3 4 4 6 7 10 13 14 14 14 14 14 14
9 8 8 8 7 6 5 4 3 4 5 4 4 5 5 5 4 3 1 1 0 1 1 0 1 1 0 0 0 1 2 3 4 5 5 6 8 12 13 14 13 13 13
8 8 8 7 7 6 5 4 3 4 4 4 4 5 5 5 4 3 2 0 1 1 1 1 1 1 1 0 1 1 1 2 3 3 4 5 6 7 9 12 13 13 13
9 9 7 6 7 5 4 3 3 3 3 3 4 4 4 4 4 3 1 1 2 1 1 0 0 0 1 2 2 1 1 1 2 3 3 4 5 5 6 8 11 12 13
9 8 7 6 6 5 4 3 3 2 2 2 3 3 4 4 4 3 2 1 2 1 1 1 0 0 1 2 1 1 1 1 2 2 2 3 4 5 6 7 7 9 13
9 8 7 7 6 5 3 3 3 2 2 2 2 3 4 4 4 3 1 1 1 1 0 1 0 1 1 1 2 2 2 1 1 1 1 2 2 4 5 6 6 6 7
10 9 8 7 7 6 4 3 3 3 2 2 1 2 3 4 3 3 2 1 0 1 1 2 1 1 1 1 1 2 2 3 2 1 1 2 2 3 3 4 5 5 5
10 10 9 8 7 5 4 3 3 3 2 2 1 1 1 3 4 3 2 1 1 1 0 1 1 1 1 1 1 2 2 1 2 2 1 1 1 2 2 3 5 6 7
10 9 8 7 6 5 5 5 5 4 3 3 2 1 1 2 3 3 2 1 1 1 1 1 0 0 1 0 1 0 2 3 1 2 3 2 1 2 2 3 4 5 6
10 9 8 7 6 5 5 5 5 3 2 2 2 2 1 1 1 2 2 1 1 1 1 1 1 1 1 1 1 0 0 0 1 2 2 3 3 2 3 3 3 4 5
9 8 8 8 6 6 6 5 5 5 4 4 2 2 1 1 1 1 2 1 1 1 1 1 1 1 1 1 1 1 1 1 2 2 3 3 3 3 3 2 3 4 5
Wind_Direction
151 152 137 130 124 119 116 115 112 113 115 115 115 115 118 120 123 125 127 130 133 135 137 137 135 131 128 129 129 130 129 131 133 132 132 131 132 131 129 129 126 125 127
152 152 139 132 127 123 120 119 116 115 116 119 121 122 122 123 125 126 129 133 134 136 139 140 139 135 132 131 130 131 129 129 133 134 133 133 136 136 135 136 134 134 135
144 148 141 136 131 127 124 122 119 117 117 120 122 124 125 125 127 128 130 134 136 136 139 141 139 139 139 136 135 135 134 133 135 136 134 134 139 141 143 140 140 140 140
146 147 144 140 135 129 126 125 123 122 121 124 125 126 127 129 131 132 133 135 139 141 143 144 144 143 144 143 142 141 142 140 140 141 139 142 146 148 149 147 146 146 146
144 146 148 142 138 134 130 130 129 127 125 127 128 128 129 132 135 138 140 142 145 147 149 150 151 149 150 151 151 152 154 153 154 149 148 156 159 160 159 156 157 157 156
139 145 147 141 140 138 136 133 132 132 130 131 134 134 134 138 140 145 147 149 151 152 153 154 156 157 161 166 166 168 176 170 159 150 158 164 170 173 173 170 168 166 166
137 143 146 141 142 142 140 138 137 135 136 138 140 142 143 145 144 146 152 153 155 158 161 164 168 172 175 177 178 181 185 180 157 152 161 170 178 183 182 180 177 175 174
139 140 146 146 144 144 143 142 142 140 140 139 144 148 149 149 151 155 159 163 166 169 173 176 181 185 189 188 191 196 194 188 171 167 168 175 184 186 189 185 183 181 178
137 138 140 148 148 147 146 144 144 143 144 144 146 152 155 157 161 166 171 173 176 179 183 188 191 199 205 204 206 204 201 200 184 184 187 182 186 189 190 189 186 186 183
131 136 140 144 147 150 152 150 148 148 148 148 150 153 159 163 165 167 173 181 186 188 194 202 205 214 219 219 215 209 207 205 187 184 190 191 192 193 193 191 190 190 188
132 136 139 137 143 154 158 162 158 155 156 158 159 155 155 166 174 178 182 187 193 197 205 217 223 232 237 232 221 217 216 201 184 194 192 196 198 200 200 197 193 192 190
152 155 151 149 150 153 162 163 163 156 158 164 165 159 160 164 172 180 192 199 208 215 220 227 237 250 252 243 229 224 215 191 189 198 199 201 204 208 207 201 198 194 192
161 159 160 161 156 158 161 151 158 157 160 170 170 166 165 166 170 184 181 212 228 230 233 235 247 256 244 227 222 218 208 197 197 203 204 205 206 209 207 203 201 196 195
156 161 162 161 157 163 159 158 156 154 161 165 179 178 166 153 135 140 162 211 222 227 225 240 243 249 251 234 219 206 202 199 200 204 207 208 207 204 203 202 201 199 201
153 158 162 156 160 163 154 157 151 160 166 168 174 177 165 151 147 161 172 194 222 227 221 228 244 275 292 262 215 199 196 198 199 203 204 208 209 203 200 201 202 204 206
159 162 163 157 159 154 152 149 152 162 168 165 171 169 161 156 154 157 164 167 209 219 213 198 223 269 299 307 237 179 196 190 192 200 203 208 210 204 201 201 203 207 210
165 164 164 162 160 156 154 159 152 161 159 157 162 158 157 158 156 149 127 113 155 155 117 105 28 74 53 45 309 238 213 192 179 191 199 204 205 205 202 204 206 210 213
160 161 168 161 160 161 158 159 144 149 151 156 158 152 160 158 141 131 123 110 88 84 82 97 69 5 340 322 266 233 218 189 187 194 200 203 203 202 207 211 212 213 214
160 160 162 151 155 161 157 148 133 133 146 154 150 148 155 139 123 122 128 116 85 75 54 319 137 219 273 280 257 232 222 190 199 206 213 201 199 202 207 219 218 214 216
159 159 159 152 154 149 139 119 108 111 125 133 138 143 142 132 121 108 114 92 83 72 28 309 279 330 258 274 285 289 264 229 205 204 216 198 191 210 214 219 215 215 221
158 157 160 154 158 152 144 140 138 145 154 149 154 148 139 136 126 109 111 105 90 104 243 284 316 359 326 0 38 3 355 338 204 199 205 188 195 207 209 210 207 207 216
166 165 163 164 166 165 167 166 158 149 157 156 150 126 130 129 135 129 121 128 96 53 1 0 28 14 325 33 103 76 6 348 339 292 198 182 190 203 209 204 194 198 206
170 172 172 170 165 166 156 133 118 98 86 93 121 160 158 141 134 121 133 122 91 119 262 319 14 105 358 354 106 134 135 245 308 320 284 232 200 200 215 208 203 201 204
176 171 164 160 157 154 144 142 145 150 162 184 185 185 163 144 139 137 114 132 159 164 203 282 270 194 126 326 322 162 174 173 177 311 320 305 264 217 229 228 222 210 204
170 164 157 151 149 143 144 151 149 152 164 157 154 147 146 153 170 153 130 149 180 196 205 213 212 202 176 183 207 254 327 267 180 184 274 306 313 273 238 229 218 213 205
166 161 156 154 157 152 151 153 155 158 156 149 159 162 171 227 242 203 158 156 186 201 209 213 213 195 197 178 180 173 178 192 218 199 226 266 284 284 268 248 221 217 210
Height
1515 1515 1515 1515 1515 1515 1516 1516 1516 1516 1516 1517 1517 1518 1519 1520 1521 1522 1523 1524 1525 1526 1528 1529 1531 1532 1533 1534 1535 1536 1537 1538 1540 1540 1541 1542 1543 1544 1545 1546 1546 1546 1547
1515 1515 1516 1516 1516 1516 1516 1517 1517 1517 1517 1517 1518 1519 1520 1521 1522 1523 1524 1525 1526 1527 1528 1530 1531 1532 1533 1535 1536 1537 1538 1539 1540 1541 1542 1543 1544 1545 1546 1546 1547 1547 1547
1514 1515 1516 1516 1516 1517 1517 1517 1518 1518 1517 1518 1518 1519 1520 1521 1523 1524 1525 1525 1527 1528 1529 1530 1532 1533 1534 1536 1537 1538 1539 1540 1541 1542 1543 1544 1545 1546 1546 1547 1547 1548 1548
1514 1515 1516 1517 1517 1518 1518 1518 1518 1518 1518 1519 1519 1520 1521 1522 1524 1524 1525 1526 1528 1529 1530 1531 1532 1534 1535 1536 1538 1539 1540 1541 1542 1543 1544 1545 1545 1546 1547 1547 1548 1549 1549
1514 1515 1516 1517 1518 1518 1519 1519 1519 1519 1520 1520 1520 1521 1522 1523 1524 1525 1526 1527 1528 1529 1530 1532 1533 1534 1536 1537 1538 1539 1540 1541 1542 1543 1544 1545 1546 1547 1547 1548 1549 1549 1549
1515 1516 1517 1518 1519 1519 1520 1520 1520 1520 1521 1521 1522 1523 1523 1524 1525 1526 1526 1527 1528 1530 1531 1532 1533 1534 1536 1537 1538 1539 1540 1542 1542 1543 1544 1545 1546 1547 1547 1548 1549 1549 1549
1516 1517 1519 1519 1520 1521 1521 1521 1521 1522 1522 1522 1523 1524 1524 1525 1526 1526 1527 1528 1529 1530 1531 1532 1533 1535 1536 1537 1538 1539 1540 1541 1542 1543 1544 1545 1545 1546 1547 1547 1548 1549 1549
1518 1519 1520 1521 1521 1521 1522 1522 1522 1523 1523 1524 1524 1525 1525 1526 1527 1527 1528 1529 1530 1531 1532 1533 1533 1535 1536 1537 1538 1539 1540 1541 1542 1542 1543 1544 1544 1545 1546 1547 1548 1548 1548
1521 1521 1521 1522 1522 1522 1523 1523 1524 1524 1524 1525 1525 1526 1527 1527 1528 1528 1529 1530 1530 1532 1532 1533 1534 1534 1535 1536 1537 1538 1539 1540 1541 1541 1542 1543 1544 1545 1545 1546 1547 1547 1548
1522 1523 1523 1523 1523 1524 1524 1524 1525 1525 1526 1526 1527 1527 1528 1528 1529 1529 1530 1530 1531 1532 1532 1533 1534 1535 1535 1536 1537 1538 1538 1539 1540 1540 1541 1542 1543 1544 1544 1545 1546 1546 1547
1524 1524 1524 1524 1524 1525 1525 1525 1526 1526 1527 1528 1528 1528 1529 1529 1529 1530 1531 1531 1532 1532 1533 1534 1534 1535 1535 1536 1536 1537 1538 1538 1539 1540 1540 1541 1542 1543 1544 1544 1545 1546 1546
1523 1525 1525 1525 1526 1526 1526 1527 1527 1527 1528 1528 1529 1529 1529 1530 1530 1531 1531 1532 1532 1533 1533 1534 1534 1535 1535 1535 1536 1536 1537 1537 1538 1538 1539 1540 1540 1542 1543 1543 1544 1544 1545
1524 1525 1525 1526 1527 1527 1527 1528 1528 1528 1529 1529 1530 1530 1530 1530 1531 1532 1532 1532 1533 1533 1534 1534 1534 1534 1535 1535 1535 1535 1536 1536 1537 1537 1538 1538 1539 1540 1541 1541 1542 1543 1544
1524 1525 1526 1526 1527 1528 1528 1528 1529 1529 1530 1530 1530 1530 1531 1531 1532 1532 1532 1533 1533 1534 1534 1534 1534 1535 1535 1535 1534 1535 1535 1535 1536 1536 1537 1537 1538 1538 1539 1540 1541 1542 1543
1524 1525 1526 1527 1527 1528 1528 1529 1529 1530 1530 1531 1531 1531 1532 1532 1532 1533 1533 1533 1533 1533 1533 1533 1534 1534 1534 1534 1534 1534 1534 1534 1534 1535 1535 1536 1536 1537 1537 1538 1539 1540 1541
1524 1525 1526 1527 1528 1528 1529 1529 1530 1530 1531 1532 1532 1532 1532 1533 1533 1533 1533 1533 1533 1533 1533 1533 1533 1533 1533 1533 1533 1533 1533 1533 1533 1534 1534 1534 1535 1535 1536 1537 1537 1539 1539
1524 1525 1526 1527 1528 1529 1529 1530 1530 1531 1531 1532 1532 1533 1533 1533 1533 1534 1533 1533 1533 1533 1533 1532 1532 1532 1532 1532 1532 1532 1532 1532 1532 1532 1533 1533 1534 1534 1534 1535 1536 1537 1538
1524 1525 1526 1527 1528 1529 1530 1530 1531 1531 1532 1532 1533 1533 1533 1534 1534 1534 1533 1533 1533 1533 1532 1532 1531 1531 1530 1530 1530 1530 1531 1531 1531 1531 1531 1532 1532 1533 1533 1534 1535 1535 1536
1523 1524 1525 1526 1527 1528 1529 1530 1531 1532 1532 1533 1533 1533 1533 1534 1534 1534 1533 1533 1533 1532 1532 1531 1530 1530 1529 1528 1528 1528 1529 1529 1529 1530 1530 1530 1531 1531 1532 1533 1533 1534 1534
1522 1523 1525 1526 1527 1528 1529 1530 1531 1532 1532 1533 1533 1533 1533 1533 1533 1533 1532 1532 1532 1532 1531 1530 1529 1529 1528 1527 1527 1527 1528 1528 1529 1528 1529 1529 1529 1530 1531 1531 1532 1532 1532
1521 1522 1524 1525 1526 1527 1528 1529 1530 1531 1531 1532 1532 1532 1532 1533 1533 1533 1532 1532 1532 1531 1530 1530 1529 1528 1527 1527 1526 1526 1527 1527 1527 1527 1527 1528 1528 1528 1529 1529 1530 1530 1531
1519 1520 1523 1524 1525 1527 1528 1528 1529 1530 1531 1532 1532 1532 1532 1532 1532 1531 1531 1531 1531 1530 1530 1529 1529 1528 1527 1526 1526 1526 1526 1527 1526 1526 1526 1526 1527 1527 1527 1528 1528 1528 1529
1517 1519 1521 1523 1524 1526 1527 1528 1529 1529 1530 1530 1531 1531 1531 1531 1531 1530 1530 1530 1530 1530 1529 1528 1528 1527 1527 1526 1525 1526 1526 1525 1525 1525 1525 1525 1525 1526 1526 1526 1526 1526 1527
1516 1518 1520 1522 1523 1525 1526 1527 1527 1527 1528 1529 1530 1530 1530 1530 1530 1529 1529 1529 1528 1528 1527 1527 1527 1526 1526 1525 1525 1525 1525 1525 1525 1524 1524 1524 1524 1524 1524 1524 1524 1524 1525
1514 1517 1519 1521 1522 1524 1525 1526 1526 1526 1527 1528 1528 1529 1529 1529 1529 1528 1528 1527 1527 1527 1526 1526 1526 1525 1524 1524 1524 1523 1523 1523 1523 1523 1522 1521 1521 1521 1522 1522 1522 1522 1522
1513 1515 1517 1519 1521 1522 1523 1524 1525 1525 1526 1526 1527 1527 1528 1528 1528 1527 1527 1526 1526 1525 1525 1524 1524 1523 1522 1522 1522 1521 1521 1521 1521 1520 1520 1518 1518 1519 1519 1519 1519 1519 1520